Showing default

LEMUR 2 DEMBITZ, 42842

Orbit data source: Space-Track

LEMUR 2 DEMBITZ, 42842 is a payload satellite owned by Spire (US) in SSO that was launched on Fri, 14 Jul 2017 UTC via a SOYUZ-2-1A launch vehicle from the Tyuratam Missile And Space Complex (TTMTR). Payload-class satellites include a variety of spacecraft equipped with specific instruments for various scientific and technological missions. These include communications satellites like Starlink; space stations such as the ISS; scientific satellites like the Hubble; Earth observation satellites from companies like Planet Labs, Umbra, and HawkEye 360; GPS; miniature CubeSats for education and research; and military/defense satellites.

Loading next visibility...
Identifier
42842, 2017-042T
Orbit
SSO
Country
Flag of USUS
Related business
Manufacturer
Spire/Glasgow
Mission
Operational Commercial Com/MetRO
Bus & Motor
CUBESAT 3U, Unknown motor
Mass
4 kg wet, 4 kg dry
Launch date (UTC)
2017-07-14 (8 years ago)
Launch vehicle
SOYUZ-2-1A
Launch site
Tyuratam Missile And Space Complex (TTMTR)
Object type
Payload
Rocket body
Debris
Shape & HBR
Box, 0.5 m
Radar Cross Section
0.093 m², Small (<0.1 m²)

Expand to show TLE details & history
Last TLE update: 14 hours ago

TLE from 14 hours ago
0 LEMUR 2 DEMBITZ
1 42842U 17042T   25287.23095505  .00018948  00000-0  86540-3 0  9993
2 42842  97.3795 107.0607 0008337 158.4939 201.6649 15.20597984450842
Epoch: 2025-10-14T05:32Z
TLE epoch observation values (Epoch: 2025-10-14T05:32:34.516Z)
Latitude
0.00005°
Longitude
0.89452°
Altitude
512.462 km
Speed
7.605 km/s
True Right ascension
07h 08m 14s
True Declination
0° 00' 00"
Sunlit
Object was in daylight at epoch
Visualization orbit readout
Latitude
Unknown
Longitude
Unknown
Altitude
Unknown
Speed
Unknown
Apparent Right ascension
Unknown
Apparent Declination
Unknown
Sunlit
N/A
Visualization observer readout
Local Sidereal Time
13:39:12
Azimuth
Unknown
Elevation
Unknown
Doppler factor
Unknown
Orbital elements
Apogee altitude
506.735 km
Perigee altitude
495.264 km
Semi-major axis
6,879.137 km
Eccentricity
0.00083
Inclination
97.3795°
RAAN
107.0607°
Arg. of periapsis
158.4939°
True anomaly
201.62966°
Mean anomaly
201.6649°
Eccentric anomaly
201.64728°
Mean motion
3.80402 °/min
Orbital period
94.64 mins
BSTAR
0.0008654
Loading maneuver chart data...
Computing Atmospheric mass density...

Documentation

Showing up to 5 results
|